SIA15B VRMM-WSSS

Flight info

Callsign SIA15B
Flight time N/A
Altitude 37000
Route TENIV1A TENIV P756 OKABU M300 SALAX Y340 BATAR A464 ARAMA ARAMA1A
Aircraft A339/H-SADE1E2E3GHIJ3J5M1P2RWXY/LB2D1

Departure

Time 2026-04-29 13:05
Airport Velana International Airport (VRMM)

Arrival

Time N/A
Airport Singapore Changi Airport (WSSS)
Time Latitude Longitude Altitude Speed Heading
2026-04-29 12:35 4.18350 73.52796 18 ft 0 kts 270°
2026-04-29 12:55 4.18350 73.52803 18 ft 3 kts 270°
2026-04-29 12:56 4.18349 73.52828 18 ft 3 kts 256°
2026-04-29 12:56 4.18354 73.52848 20 ft 3 kts 211°
2026-04-29 12:56 4.18376 73.52858 18 ft 4 kts 183°
2026-04-29 12:56 4.18398 73.52859 21 ft 1 kts 179°
2026-04-29 13:00 4.18397 73.52859 20 ft 1 kts 179°
2026-04-29 13:00 4.18392 73.52859 20 ft 1 kts 178°
2026-04-29 13:00 4.18373 73.52859 18 ft 5 kts 178°
2026-04-29 13:01 4.18321 73.52861 18 ft 10 kts 178°
2026-04-29 13:01 4.18234 73.52863 19 ft 14 kts 178°
2026-04-29 13:01 4.18173 73.52864 18 ft 7 kts 179°
2026-04-29 13:01 4.18133 73.52887 18 ft 7 kts 129°
2026-04-29 13:02 4.18123 73.52906 18 ft 1 kts 118°
2026-04-29 13:02 4.18128 73.52916 21 ft 2 kts 75°
2026-04-29 13:02 4.18147 73.52927 -66 ft 4 kts 28°
2026-04-29 13:02 4.18183 73.52954 20 ft 9 kts 53°
2026-04-29 13:03 4.18192 73.53009 18 ft 8 kts 90°
2026-04-29 13:03 4.18202 73.53070 18 ft 9 kts 75°
2026-04-29 13:03 4.18249 73.53098 18 ft 8 kts 15°
2026-04-29 13:03 4.18307 73.53102 18 ft 10 kts
2026-04-29 13:04 4.18538 73.53102 18 ft 68 kts
2026-04-29 13:04 4.19263 73.53102 19 ft 137 kts
2026-04-29 13:04 4.20410 73.53100 27 ft 189 kts 359°
2026-04-29 13:04 4.21799 73.53119 381 ft 204 kts
2026-04-29 13:05 4.23236 73.53179 1063 ft 204 kts
2026-04-29 13:05 4.24593 73.53299 1984 ft 193 kts
2026-04-29 13:05 4.25968 73.53477 2486 ft 207 kts
2026-04-29 13:05 4.27470 73.53704 2803 ft 230 kts
2026-04-29 13:06 4.29107 73.53990 3112 ft 250 kts
2026-04-29 13:06 4.30850 73.54340 3390 ft 267 kts 10°
2026-04-29 13:06 4.32731 73.54762 3817 ft 275 kts 12°
2026-04-29 13:06 4.34574 73.55226 4396 ft 278 kts 13°
2026-04-29 13:07 4.36437 73.55757 4997 ft 279 kts 15°
2026-04-29 13:07 4.38294 73.56351 5559 ft 281 kts 18°
2026-04-29 13:07 4.40090 73.57136 6100 ft 285 kts 34°
2026-04-29 13:07 4.41460 73.58561 6675 ft 285 kts 59°
2026-04-29 13:08 4.42136 73.60413 7217 ft 285 kts 81°
2026-04-29 13:08 4.42296 73.62287 7780 ft 285 kts 88°
2026-04-29 13:08 4.42318 73.64266 8351 ft 285 kts 91°
2026-04-29 13:08 4.42276 73.66226 8891 ft 286 kts 92°
2026-04-29 13:09 4.42203 73.68209 9477 ft 286 kts 93°
2026-04-29 13:09 4.42153 73.70229 10027 ft 288 kts 91°
2026-04-29 13:09 4.42144 73.72267 10285 ft 300 kts 90°
2026-04-29 13:09 4.42137 73.74412 10424 ft 316 kts 92°
2026-04-29 13:10 4.42017 73.76661 10551 ft 330 kts 95°
2026-04-29 13:10 4.41742 73.78988 10819 ft 339 kts 99°
2026-04-29 13:10 4.41338 73.81321 11291 ft 340 kts 101°
2026-04-29 13:10 4.40925 73.83669 11751 ft 343 kts 100°
2026-04-29 13:11 4.40519 73.86038 12222 ft 345 kts 100°
2026-04-29 13:11 4.40115 73.88412 12666 ft 348 kts 100°
2026-04-29 13:11 4.39706 73.90811 13130 ft 350 kts 100°
2026-04-29 13:11 4.39292 73.93233 13579 ft 353 kts 100°
2026-04-29 13:12 4.38883 73.95628 13988 ft 355 kts 100°
2026-04-29 13:12 4.38475 73.98002 14394 ft 356 kts 100°
2026-04-29 13:12 4.38060 74.00419 14764 ft 359 kts 100°
2026-04-29 13:12 4.37629 74.02932 15211 ft 360 kts 100°
2026-04-29 13:13 4.37202 74.05412 15598 ft 363 kts 100°
2026-04-29 13:13 4.36772 74.07915 16000 ft 364 kts 100°
2026-04-29 13:13 4.36341 74.10424 16388 ft 366 kts 100°
2026-04-29 13:13 4.35907 74.12951 16782 ft 368 kts 100°
2026-04-29 13:14 4.35470 74.15495 17161 ft 370 kts 100°
2026-04-29 13:14 4.35037 74.18008 17524 ft 372 kts 100°
2026-04-29 13:14 4.34594 74.20582 17926 ft 374 kts 100°
2026-04-29 13:14 4.34180 74.23155 18272 ft 376 kts 97°
2026-04-29 13:15 4.33845 74.25802 18592 ft 378 kts 98°
2026-04-29 13:15 4.33493 74.28391 18935 ft 380 kts 98°
2026-04-29 13:15 4.33135 74.31040 19278 ft 382 kts 98°
2026-04-29 13:15 4.32789 74.33651 19602 ft 384 kts 97°
2026-04-29 13:16 4.32437 74.36347 19950 ft 385 kts 97°
2026-04-29 13:16 4.32092 74.39023 20282 ft 387 kts 97°
2026-04-29 13:16 4.31747 74.41710 20641 ft 389 kts 97°
2026-04-29 13:16 4.31401 74.44410 20958 ft 391 kts 97°
2026-04-29 13:17 4.31057 74.47081 21290 ft 393 kts 97°
2026-04-29 13:17 4.30705 74.49818 21629 ft 395 kts 97°
2026-04-29 13:17 4.30356 74.52536 21964 ft 397 kts 97°
2026-04-29 13:17 4.30013 74.55195 22281 ft 399 kts 97°
2026-04-29 13:18 4.29656 74.57971 22624 ft 401 kts 97°
2026-04-29 13:18 4.29309 74.60663 22925 ft 404 kts 97°
2026-04-29 13:18 4.28949 74.63459 23266 ft 406 kts 97°
2026-04-29 13:18 4.28586 74.66271 23568 ft 408 kts 97°
2026-04-29 13:19 4.28222 74.69100 23856 ft 410 kts 97°
2026-04-29 13:19 4.27855 74.71942 24126 ft 412 kts 97°
2026-04-29 13:19 4.27486 74.74803 24411 ft 414 kts 97°
2026-04-29 13:19 4.27118 74.77650 24688 ft 416 kts 97°
2026-04-29 13:20 4.26744 74.80550 24969 ft 418 kts 97°
2026-04-29 13:20 4.26371 74.83433 25252 ft 419 kts 97°
2026-04-29 13:20 4.25996 74.86337 25529 ft 421 kts 97°
2026-04-29 13:20 4.25618 74.89264 25813 ft 423 kts 97°
2026-04-29 13:21 4.25239 74.92193 26085 ft 425 kts 97°
2026-04-29 13:21 4.24860 74.95129 26362 ft 426 kts 97°
2026-04-29 13:21 4.24486 74.98022 26636 ft 428 kts 97°
2026-04-29 13:21 4.24096 75.01030 26929 ft 429 kts 97°
2026-04-29 13:22 4.23711 75.04006 27207 ft 431 kts 98°
2026-04-29 13:22 4.23327 75.06978 27489 ft 432 kts 98°
2026-04-29 13:22 4.22938 75.09980 27756 ft 434 kts 98°
2026-04-29 13:22 4.22541 75.13037 28015 ft 436 kts 98°
2026-04-29 13:23 4.22155 75.16020 28269 ft 438 kts 98°
2026-04-29 13:23 4.21761 75.19056 28529 ft 440 kts 98°
2026-04-29 13:23 4.21371 75.22066 28775 ft 442 kts 98°
2026-04-29 13:23 4.20973 75.25134 29033 ft 443 kts 98°
2026-04-29 13:24 4.20575 75.28197 29286 ft 445 kts 98°
2026-04-29 13:24 4.20175 75.31284 29521 ft 447 kts 98°
2026-04-29 13:24 4.19773 75.34378 29777 ft 449 kts 98°
2026-04-29 13:24 4.19368 75.37498 30019 ft 451 kts 98°
2026-04-29 13:25 4.18959 75.40648 30232 ft 453 kts 98°
2026-04-29 13:25 4.18144 75.46919 30677 ft 457 kts 98°
2026-04-29 13:25 4.17731 75.50094 30901 ft 459 kts 98°
2026-04-29 13:26 4.17314 75.53304 31134 ft 461 kts 98°
2026-04-29 13:26 4.16903 75.56459 31355 ft 463 kts 98°
2026-04-29 13:26 4.16485 75.59668 31576 ft 465 kts 98°
2026-04-29 13:26 4.16071 75.62849 31785 ft 467 kts 98°
2026-04-29 13:27 4.15781 75.65076 31931 ft 468 kts 98°
2026-04-29 13:27 4.15229 75.69314 32208 ft 470 kts 98°
2026-04-29 13:27 4.14804 75.72573 32391 ft 472 kts 98°
2026-04-29 13:27 4.14378 75.75846 32553 ft 474 kts 98°
2026-04-29 13:28 4.13951 75.79120 32713 ft 475 kts 98°
2026-04-29 13:28 4.13523 75.82398 32849 ft 476 kts 98°
2026-04-29 13:28 4.12806 75.87889 33065 ft 478 kts 98°
2026-04-29 13:29 4.11940 75.94523 33260 ft 480 kts 98°
2026-04-29 13:29 4.11508 75.97828 33368 ft 480 kts 98°
2026-04-29 13:29 4.11077 76.01133 33496 ft 480 kts 98°
2026-04-29 13:30 4.10639 76.04479 33615 ft 480 kts 98°
2026-04-29 13:30 4.10205 76.07799 33733 ft 480 kts 98°
2026-04-29 13:30 4.09770 76.11126 33842 ft 480 kts 98°
2026-04-29 13:30 4.09336 76.14437 33950 ft 480 kts 98°
2026-04-29 13:31 4.08465 76.21095 34157 ft 480 kts 98°
2026-04-29 13:31 4.07596 76.27725 34367 ft 480 kts 98°
2026-04-29 13:32 4.06733 76.34313 34546 ft 481 kts 98°
2026-04-29 13:32 4.06295 76.37647 34652 ft 481 kts 98°
2026-04-29 13:32 4.05861 76.40960 34759 ft 481 kts 98°
2026-04-29 13:33 4.05431 76.44232 34868 ft 480 kts 98°
2026-04-29 13:33 4.04985 76.47628 34882 ft 481 kts 98°
2026-04-29 13:33 4.04147 76.54009 34878 ft 480 kts 98°
2026-04-29 13:34 4.03292 76.60516 34876 ft 480 kts 98°
2026-04-29 13:34 4.02413 76.67199 34876 ft 480 kts 98°
2026-04-29 13:35 4.01545 76.73794 34878 ft 481 kts 98°
2026-04-29 13:35 4.00671 76.80437 34884 ft 481 kts 98°
2026-04-29 13:36 3.99795 76.87084 34888 ft 481 kts 98°
2026-04-29 13:36 3.98918 76.93735 34885 ft 481 kts 98°
2026-04-29 13:37 3.98040 77.00386 34886 ft 481 kts 98°
2026-04-29 13:37 3.97163 77.07032 34886 ft 481 kts 98°
2026-04-29 13:38 3.96285 77.13677 34889 ft 481 kts 98°
2026-04-29 13:38 3.95405 77.20339 34889 ft 482 kts 98°
2026-04-29 13:39 3.94525 77.26989 34887 ft 481 kts 98°
2026-04-29 13:39 3.93646 77.33629 34888 ft 481 kts 98°
2026-04-29 13:40 3.92768 77.40261 34887 ft 481 kts 98°
2026-04-29 13:40 3.91887 77.46912 34886 ft 481 kts 98°
2026-04-29 13:41 3.91004 77.53573 34888 ft 481 kts 98°
2026-04-29 13:41 3.90122 77.60217 34888 ft 481 kts 98°
2026-04-29 13:42 3.89240 77.66864 34888 ft 481 kts 98°
2026-04-29 13:42 3.88360 77.73486 34886 ft 481 kts 98°
2026-04-29 13:43 3.87476 77.80137 34889 ft 480 kts 98°
2026-04-29 13:43 3.86593 77.86782 34888 ft 480 kts 98°
2026-04-29 13:44 3.85722 77.93326 34887 ft 480 kts 98°
2026-04-29 13:44 3.84854 77.99958 34888 ft 480 kts 96°
2026-04-29 13:45 3.84505 78.06605 34888 ft 480 kts 93°
2026-04-29 13:45 3.84183 78.13258 34888 ft 480 kts 93°
2026-04-29 13:46 3.83850 78.19974 34890 ft 480 kts 93°
2026-04-29 13:46 3.83521 78.26609 34892 ft 480 kts 93°